Weather History for Yakima, WA

Change the Weather History Date:

Sunday, February 3, 2013

  Actual Average Record
Temperature  
Mean Temperature 35 °F 34 °F  
Max Temperature 45 °F 43 °F 61 °F (1962)
Min Temperature 25 °F 25 °F -23 °F (1950)
Degree Days  
Heating Degree Days 30 31  
Month to date heating degree days 78 93  
Since 1 July heating degree days 3347 3811  
Cooling Degree Days 0 0  
Month to date cooling degree days 0 0  
Year to date cooling degree days 0 0  
Moisture  
Dew Point 29 °F    
Average Humidity 77    
Maximum Humidity 92    
Minimum Humidity 62    
Precipitation  
Precipitation 0.00 in 0.02 in 0.37 in (1998)
Month to date precipitation 0.00 0.08  
Year to date precipitation 0.10 1.22  
Snow  
Snow 0.00 in 0.10 in 1.50 in (1950)
Month to date snowfall 0.0 0.3  
Year to date snowfall 1.1 5.6  
Since 1 July snowfall 15.3 18.6  
Snow Depth 0.00 in    
Sea Level Pressure  
Sea Level Pressure 30.23 in    
Wind  
Wind Speed 2 mph (West)    
Max Wind Speed 12 mph    
Max Gust Speed 25 mph    
Visibility 7 miles    
Events      
T = Trace of Precipitation, MM = Missing Value Source: NWS Daily Summary

Daily Weather History Graph

Daily Weather History Graph

Search for Another Location

Airport:

Trip Planner

Search our weather history database for the weather conditions in past years. The results will help you decide how hot, cold, wet, or windy it might be!

Date:

Astronomy

Feb. 03, 2013 Rise Set
Actual Time 7:22 AM PST 5:09 PM PST
Civil Twilight 6:50 AM PST 5:41 PM PST
Nautical Twilight 6:14 AM PST 6:17 PM PST
Astronomical Twilight 5:39 AM PST 6:53 PM PST
Moon 12:57 AM PST (2/3) 10:48 AM PST (2/3)
Length of Visible Light 10h 50m
Length of Day
9h 46m
Waning Gibbous, 47% of the Moon is Illuminated
Feb 3
Waning Gibbous
Feb 9
New
Feb 17
First Quarter
Feb 25
Full
Mar 4
Last Quarter

Hourly Weather History & Observations

Time (PST) Temp. Windchill Dew Point Humidity Pressure Visibility Wind Dir Wind Speed Gust Speed Precip Events Conditions
12:53 AM 28.0 °F - 25.0 °F 88% 30.27 in 8.0 mi Calm Calm - N/A   Clear
1:53 AM 27.0 °F - 23.0 °F 85% 30.28 in 7.0 mi Calm Calm - N/A   Clear
2:53 AM 26.1 °F 18.4 °F 21.9 °F 84% 30.27 in 7.0 mi West 6.9 mph - N/A   Clear
3:53 AM 28.0 °F 24.2 °F 24.1 °F 85% 30.25 in 7.0 mi East 3.5 mph - N/A   Clear
4:53 AM 25.0 °F - 21.0 °F 85% 30.26 in 6.0 mi Calm Calm - N/A   Clear
5:53 AM 27.0 °F 19.5 °F 24.1 °F 89% 30.27 in 7.0 mi West 6.9 mph - N/A   Clear
6:53 AM 28.9 °F - 25.0 °F 85% 30.26 in 7.0 mi Calm Calm - N/A   Clear
7:53 AM 28.9 °F - 25.0 °F 85% 30.28 in 5.0 mi Calm Calm - N/A   Clear
8:53 AM 33.1 °F - 28.0 °F 82% 30.27 in 6.0 mi Calm Calm - N/A   Haze
9:53 AM 33.1 °F - 28.9 °F 85% 30.27 in 6.0 mi Calm Calm - N/A   Mostly Cloudy
10:53 AM 37.0 °F - 30.0 °F 76% 30.27 in 6.0 mi Calm Calm - N/A   Haze
11:53 AM 41.0 °F - 30.9 °F 67% 30.24 in 10.0 mi Calm Calm - N/A   Clear
12:53 PM 42.1 °F - 30.9 °F 65% 30.22 in 9.0 mi Calm Calm - N/A   Clear
1:53 PM 44.1 °F - 32.0 °F 63% 30.18 in 10.0 mi Calm Calm - N/A   Clear
2:53 PM 44.1 °F - 32.0 °F 63% 30.19 in 10.0 mi Calm Calm - N/A   Clear
3:53 PM 43.0 °F 38.8 °F 33.1 °F 68% 30.19 in 10.0 mi West 6.9 mph - N/A   Clear
4:53 PM 41.0 °F - 32.0 °F 70% 30.19 in 9.0 mi Calm Calm - N/A   Partly Cloudy
5:53 PM 39.9 °F 37.8 °F 32.0 °F 73% 30.19 in 8.0 mi ESE 3.5 mph - N/A   Mostly Cloudy
6:53 PM 37.9 °F 35.5 °F 30.9 °F 76% 30.20 in 8.0 mi West 3.5 mph - N/A   Partly Cloudy
7:53 PM 37.4 °F 33.8 °F 32.0 °F 81% 30.17 in 7.0 mi West 4.6 mph - N/A   Overcast
8:53 PM 37.0 °F 34.5 °F 32.0 °F 82% 30.19 in 6.0 mi NW 3.5 mph - N/A   Haze
9:53 PM 36.0 °F - 30.9 °F 82% 30.18 in 6.0 mi Calm Calm - N/A   Haze
10:53 PM 35.1 °F 31.0 °F 30.9 °F 85% 30.17 in 5.0 mi West 4.6 mph - N/A   Clear
11:53 PM 34.0 °F 29.8 °F 30.0 °F 85% 30.17 in 5.0 mi WSW 4.6 mph - N/A   Clear